sat.trackr.live / text

‹ back to catalog

COSMOS 2564 (761)

NORAD 54377 · 2022-161A

PAYLOAD ACTIVE UNKNOWN

§ Identity

Operator
Country
CIS
Launch date
2022-11-28
Launch site
PLMSC
Launch vehicle
Mass (kg)
RCS (m²)

Purposes: nav

External: N2YO · Heavens-Above · Gunter

§ Orbital elements

Epoch: 2026-09-20T00:45:25.907904Z

Period
675.73 min
Inclination
64.7422°
Eccentricity
0.0010748
Mean motion
2.13102087 rev/d
Perigee alt
19,102.5 km
Apogee alt
19,157.3 km
Semi-major
25,508.0 km
B*
0.0000e+0
RAAN
189.5662°
Arg perigee
217.5056°
Mean anomaly
142.4312°
Rev number
2,965

§ Raw data

COSMOS 2564 (761)1 54377U 22161A   26263.03154986 -.00000012  00000+0  00000+0 0  99952 54377  64.7422 189.5662 0010748 217.5056 142.4312  2.13102087 29659

JSON: /api/v1/satellites/54377 · /tle

For live sub-satellite position, see the globe view (requires WebGL).

§ Visibility from observer

Set your observer location to see the next 7 days of passes ≥ 10°. The values pass through the URL so the page stays shareable.

No JS? Fill the form by hand. The geolocation button needs JavaScript.